CZ-6A DEB, 54897

Orbit data source: Space-Track

CZ-6A DEB, 54897 is space debris in SSO originally from a launch on Fri, 11 Nov 2022 UTC launched from the Taiyaun Space Center, China (TSC). Debris objects in space refer to the collection of defunct objects orbiting the Earth. Examples of debris include non-operational satellites, rocket bodies, and fragments generated from explosions, collisions, or faulty payload assembly.

Loading next visibility...
Identifier
54897, 2022-151QJ
Orbit
SSO
Country
Flag of CNCN / PRC
Related business
Manufacturer
SAST
Mission
Spacecraft
Bus & Motor
Unknown
Mass
Unknown
Launch date (UTC)
2022-11-11 (4 years ago)
Launch vehicle
Unknown
Launch site
Taiyaun Space Center, China (TSC)
Object type
Payload
Rocket body
Debris
Shape & HBR
Unknown shape, 0.1 m
Radar Cross Section
Small (<0.1 m²)

Expand to show TLE details & history
Last TLE update: 2 days ago

TLE from 2 days ago
0 CZ-6A DEB
1 54897U 22151QJ  26171.10981838  .00006857  00000-0  11905-2 0  9993
2 54897  98.6046 229.4270 0081678 290.3772  68.8670 14.66361929186247
Epoch: 2026-06-20T02:38Z
TLE epoch observation values (Epoch: 2026-06-20T02:38:08.308Z)
Latitude
-0.00003°
Longitude
-78.43677°
Altitude
655.331 km
Speed
7.541 km/s
True Right ascension
15h 17m 42s
True Declination
0° 00' 00"
Sunlit
Object was in full shadow at epoch
Visualization orbit readout
Latitude
Unknown
Longitude
Unknown
Altitude
Unknown
Speed
Unknown
Apparent Right ascension
Unknown
Apparent Declination
Unknown
Sunlit
N/A
Visualization observer readout
Local Sidereal Time
21:23:45
Azimuth
Unknown
Elevation
Unknown
Doppler factor
Unknown
Orbital elements
Apogee altitude
727.364 km
Perigee altitude
612.232 km
Semi-major axis
7,047.935 km
Eccentricity
0.00817
Inclination
98.6046°
RAAN
229.427°
Arg. of periapsis
290.3772°
True anomaly
69.7432°
Mean anomaly
68.867°
Eccentric anomaly
69.30478°
Mean motion
3.66818 °/min
Orbital period
98.14 mins
BSTAR
0.0011905
Loading maneuver chart data...
Computing Atmospheric mass density...
Loading historical data...
Loading historical data...
Loading historical data...
Loading historical data...
Loading historical data...
Loading historical data...
Loading historical data...

Documentation

Showing up to 5 results
|